Regional Weather Roundup
Issued by NWS

Home | Current Version | Previous Version | Text Only | Print | Product List | Glossary On
Versions: 1 2 3 4 5 6 7 8 9 10 11 12 13 14 15 16 17 18 19 20 21 22 23 24 25 26 27 28 29 30 31 32 33 34 35 36 37 38 39 40 41 42 43 44 45 46 47 48 49 50
000
ASUS43 KDTX 201010
RWRMI
MICHIGAN HOURLY REGIONAL WEATHER ROUNDUP
NATIONAL WEATHER SERVICE DETROIT/PONTIAC MI
600 AM EDT FRI APR 20 2018

NOTE: "FAIR" INDICATES FEW OR NO CLOUDS BELOW 12,000 FEET WITH NO
SIGNIFICANT WEATHER AND/OR OBSTRUCTION TO VISIBILITY.

MIZ047>049-052>055-059>063-066>070-074>076-081>083-201100-
SOUTHEAST LOWER MICHIGAN

CITY           SKY/WX    TMP DP  RH WIND       PRES   REMARKS
ADRIAN         FAIR      31  18  58 NW6       30.41R WCI  25
ALMA           FAIR      29  20  66 CALM      30.43R
ANN ARBOR      FAIR      32  19  58 NW6       30.39R WCI  26
BAD AXE        FAIR      31  22  68 CALM      30.39R
CARO           FAIR      24  21  87 CALM      30.40R
DETROIT CITY   FAIR      34  20  56 NW5       30.40R WCI  30
DETROIT        FAIR      33  19  56 NW5       30.40R WCI  29
FLINT          FAIR      31  19  61 CALM      30.40R
GROSSE ILE     FAIR      31  23  72 N5        30.39R WCI  26
HILLSDALE      FAIR      30  19  64 W6        30.41R WCI  24
HOWELL         FAIR      31  20  64 NW3       30.40R

CITY           SKY/WX    TMP DP  RH WIND       PRES   REMARKS
JACKSON        FAIR      28  20  71 W5        30.42R WCI  23
LAMBERTVILLE   FAIR      31  23  74 CALM      30.40R
LANSING        FAIR      30  18  60 NW5       30.43R WCI  25
LAPEER         FAIR      28  21  78 CALM      30.39R
MASON          FAIR      31  17  54 W5        30.42R WCI  27
MONROE         FAIR      30  21  68 CALM      30.39R
MT. CLEMENS    FAIR      32  22  68 NW6         N/A  WCI  26
PONTIAC        FAIR      31  20  63 NW6       30.37R WCI  25
PORT HOPE        N/A     34  28  79 NW9       30.37R WCI  27
PORT HURON     FAIR      28  21  74 NW3       30.38R
TRI CITIES     FAIR      31  19  61 NW7       30.41R WCI  24
MIDLAND        FAIR      27  20  73 CALM      30.41R
TROY           FAIR      35  20  53 NW7       30.40R WCI  29
SAGINAW HB     FAIR      28  21  74 W5        30.41R WCI  23
$$
MIZ043>046-050>051-056>058-064>065-071>073-077>080-201100-
SOUTHWEST LOWER MICHIGAN

CITY           SKY/WX    TMP DP  RH WIND       PRES   REMARKS
BATTLE CREEK   FAIR      30  18  60 CALM      30.44R
BENTON HARBOR  FAIR      25  21  85 E3        30.46R
BIG RAPIDS     FAIR      26  19  75 CALM      30.42R
COLDWATER      FAIR      30  20  67 CALM      30.44R
FREMONT        FAIR      26  21  80 CALM      30.45R
HOLLAND        FAIR      28  22  78 CALM      30.46R
GRAND RAPIDS   FAIR      33  19  56 W5        30.44R WCI  29
IONIA          FAIR      31  19  60 W5        30.42R WCI  27
KALAMAZOO      FAIR      32  17  54 NW3       30.45R
LUDINGTON      FAIR      25  25  99 CALM      30.45R
MARSHALL       FAIR      26  18  70 W3        30.43R
MOUNT PLEASANT FAIR      32  20  61 W3        30.41R
MUSKEGON       FAIR      26  21  81 CALM      30.46R
SOUTH HAVEN    FAIR      26  24  92 CALM      30.47R
$$
MIZ016>042-201100-
NORTHERN LOWER MICHIGAN

CITY           SKY/WX    TMP DP  RH WIND       PRES   REMARKS
ALPENA         FAIR      25  20  81 CALM      30.40R
BEAVER ISLAND  FAIR      25  22  86 CALM      30.43R
BELLAIRE       FAIR      20  19  93 CALM      30.45R
CADILLAC       FAIR      22  16  78 W3        30.40R
CHARLEVOIX     FAIR      24  20  87 CALM      30.46R
FRANKFORT      FAIR      24  22  90 CALM      30.45R
GAYLORD        FAIR      23  17  78 W6        30.39R WCI  16
GRAYLING       FAIR      24  18  78 W6        30.39R WCI  17
HARBOR SPRINGS FAIR      26  21  82 CALM      30.42R
HOUGHTON LAKE  FAIR      24  16  71 W3        30.40R
MANISTEE       FAIR      22  19  89 CALM      30.45R
OSCODA         FAIR      28  18  65 NW6       30.39R WCI  22
PELLSTON       FAIR      19  16  88 W3        30.42R
ROGERS CITY    FAIR      29  24  82 W3        30.41R
TRAVERSE CITY  FAIR      23  19  85 CALM      30.43R
$$
MIZ007>008-015-201100-
EASTERN UPPER MICHIGAN

CITY           SKY/WX    TMP DP  RH WIND       PRES   REMARKS
KINROSS        FAIR      23  21  92 CALM      30.41R
MACKINAC ISLAN FAIR      28  22  81 N3        30.41R
NEWBERRY       FAIR      28  24  83 CALM      30.41R
S. S. MARIE    FAIR      25  21  85 W6        30.40R WCI  18
MUNISING         N/A     22  17  81 S6        30.42R WCI  14
$$
MIZ004>006-011>014-085-201100-
CENTRAL UPPER MICHIGAN

CITY           SKY/WX    TMP DP  RH WIND       PRES   REMARKS
MANISTIQUE     FAIR      23  15  71 NW3       30.43R
ESCANABA       FAIR      24  16  71 CALM      30.44R
MENOMINEE      FAIR      21  19  92 CALM      30.46
SAWYER-GWINN   FAIR      26   6  42 CALM      30.41S
$$
MIZ001>003-009>011-084-201100-
WESTERN UPPER MICHIGAN

CITY           SKY/WX    TMP DP  RH WIND       PRES   REMARKS
IRON MOUNTAIN  FAIR      21  16  81 CALM      30.42R
HOUGHTON       FAIR      33  10  38 NW10      30.39R WCI  25
COPPER HARBOR    N/A     28  14  55 W7        30.39R WCI  21
IRONWOOD       FAIR      22  16  78 CALM      30.43R
$$

ABBREVIATIONS USED IN REMARKS
   TC - TEMPERATURE IN CELSIUS
  WCI - WIND CHILL INDEX
   HX - HEAT INDEX
  VSB - VISIBILITY





USA.gov is the U.S. government's official web portal to all federal, state and local government web resources and services.